TimeMST,TemperatureF,Dew PointF,Humidity,Sea Level PressureIn,VisibilityMPH,Wind Direction,Wind SpeedMPH,Gust SpeedMPH,PrecipitationIn,Events,Conditions,WindDirDegrees,DateUTC
12:53 AM,21.9,14.0,72,29.96,10.0,NNW,17.3,25.3,N/A,,Clear,340,2013-03-04 07:53:00
1:53 AM,21.0,10.9,65,29.96,10.0,NW,25.3,34.5,N/A,,Clear,320,2013-03-04 08:53:00
2:53 AM,21.0,10.0,63,30.00,10.0,NW,35.7,48.3,N/A,,Clear,320,2013-03-04 09:53:00
3:53 AM,21.0,10.0,63,30.05,10.0,NW,28.8,40.3,N/A,,Scattered Clouds,310,2013-03-04 10:53:00
4:53 AM,21.9,10.9,63,30.06,10.0,NNW,29.9,47.2,N/A,,Overcast,330,2013-03-04 11:53:00
5:53 AM,21.0,12.0,68,30.10,10.0,NNW,31.1,41.4,N/A,Snow,Overcast,330,2013-03-04 12:53:00
6:53 AM,19.9,10.0,65,30.14,10.0,NNW,33.4,44.9,N/A,Snow,Overcast,330,2013-03-04 13:53:00
7:53 AM,21.0,10.9,65,30.19,10.0,NW,27.6,41.4,N/A,,Overcast,320,2013-03-04 14:53:00
8:53 AM,19.9,12.9,74,30.25,4.0,NW,28.8,40.3,0.00,Snow,Light Snow,310,2013-03-04 15:53:00
9:53 AM,21.0,14.0,74,30.28,10.0,NW,24.2,36.8,0.00,Snow,Light Snow,320,2013-03-04 16:53:00
10:53 AM,21.9,14.0,72,30.31,9.0,NW,28.8,36.8,0.00,,Overcast,320,2013-03-04 17:53:00
11:53 AM,23.0,12.0,63,30.32,10.0,NNW,25.3,32.2,0.00,,Overcast,330,2013-03-04 18:53:00
12:53 PM,25.0,12.0,58,30.33,10.0,NNW,21.9,32.2,N/A,,Mostly Cloudy,330,2013-03-04 19:53:00
1:53 PM,27.0,12.0,53,30.35,10.0,NNW,21.9,26.5,N/A,,Mostly Cloudy,340,2013-03-04 20:53:00
2:53 PM,28.9,10.9,47,30.34,10.0,NNW,11.5,-,N/A,,Mostly Cloudy,340,2013-03-04 21:53:00
3:53 PM,28.9,12.0,49,30.37,10.0,NNW,18.4,-,N/A,,Scattered Clouds,330,2013-03-04 22:53:00
4:53 PM,28.0,10.9,49,30.38,10.0,North,19.6,25.3,N/A,,Partly Cloudy,10,2013-03-04 23:53:00
5:53 PM,24.1,10.9,57,30.40,10.0,NE,15.0,-,N/A,,Partly Cloudy,40,2013-03-05 00:53:00
6:53 PM,19.9,10.0,65,30.45,10.0,NE,4.6,-,N/A,,Clear,40,2013-03-05 01:53:00
7:53 PM,19.0,10.0,68,30.47,10.0,NE,5.8,-,N/A,,Clear,40,2013-03-05 02:53:00
8:53 PM,18.0,10.9,74,30.48,10.0,ESE,4.6,-,N/A,,Clear,120,2013-03-05 03:53:00
9:53 PM,18.0,10.0,71,30.47,10.0,ESE,9.2,-,N/A,,Clear,110,2013-03-05 04:53:00
10:53 PM,17.1,10.0,74,30.46,10.0,ESE,8.1,-,N/A,,Clear,120,2013-03-05 05:53:00